• In Portugal
  • List of Countries
  • For 7 days
  • Water Temperature
  • Satellite Maps
  • Weather Map
  • Weather Widgets
  • user-avatar
    Login

    Hourly Weather Burdur

    Today, 21 June, Thursday

    Time Temperature Precipitation Wind Pressure Humidity
    00:00 +17°C° 0 mm 0 mps 677 mmHg 73%
    01:00 +17°C° 0 mm 0 mps 677 mmHg 74%
    02:00 +16°C° 0 mm 0 mps 677 mmHg 76%
    03:00 +16°C° 0 mm 0 mps 677 mmHg 77%
    04:00 +16°C° 0 mm 0 mps 677 mmHg 78%
    05:00 +16°C° 0 mm 0 mps 677 mmHg 79%
    06:00 +17°C° 0 mm 0 mps 677 mmHg 71%
    07:00 +19°C° 0 mm 0 mps 678 mmHg 64%
    08:00 +21°C° 0 mm 0 mps 678 mmHg 56%
    09:00 +24°C° 0.1 mm 1 mps 678 mmHg 52%
    10:00 +25°C° 0.1 mm 1 mps 678 mmHg 47%
    11:00 +26°C° 0.1 mm 2 mps 678 mmHg 43%
    12:00 +26°C° 0.1 mm 2 mps 678 mmHg 42%
    13:00 +27°C° 0.1 mm 2 mps 678 mmHg 40%
    14:00 +27°C° 0.1 mm 2 mps 678 mmHg 39%
    15:00 +27°C° 0.1 mm 3 mps 677 mmHg 42%
    16:00 +26°C° 0.1 mm 3 mps 677 mmHg 45%
    17:00 +25°C° 0.1 mm 3 mps 677 mmHg 48%
    18:00 +24°C° 0.7 mm 2 mps 677 mmHg 55%
    19:00 +23°C° 0.7 mm 2 mps 677 mmHg 61%
    20:00 +21°C° 0.7 mm 2 mps 676 mmHg 68%
    21:00 +21°C° 0.2 mm 1 mps 676 mmHg 71%
    22:00 +20°C° 0.2 mm 1 mps 676 mmHg 74%
    23:00 +20°C° 0.2 mm 1 mps 676 mmHg 77%

    Tomorrow, 22 June, Friday

    Time Temperature Precipitation Wind Pressure Humidity
    00:00 +19°C° 0 mm 1 mps 676 mmHg 79%
    01:00 +19°C° 0 mm 1 mps 676 mmHg 81%
    02:00 +18°C° 0 mm 1 mps 676 mmHg 82%
    03:00 +18°C° 0 mm 1 mps 676 mmHg 84%
    04:00 +18°C° 0 mm 1 mps 675 mmHg 85%
    05:00 +18°C° 0 mm 1 mps 675 mmHg 86%
    06:00 +19°C° 0 mm 1 mps 676 mmHg 79%
    07:00 +21°C° 0 mm 1 mps 676 mmHg 72%
    08:00 +22°C° 0 mm 1 mps 676 mmHg 65%
    09:00 +23°C° 0 mm 1 mps 676 mmHg 59%
    10:00 +24°C° 0 mm 1 mps 676 mmHg 52%
    11:00 +26°C° 0 mm 1 mps 677 mmHg 45%
    12:00 +26°C° 0 mm 2 mps 676 mmHg 43%
    13:00 +27°C° 0 mm 2 mps 676 mmHg 41%
    14:00 +27°C° 0 mm 3 mps 676 mmHg 39%
    15:00 +27°C° 0 mm 3 mps 676 mmHg 41%
    16:00 +26°C° 0 mm 3 mps 676 mmHg 44%
    17:00 +26°C° 0 mm 3 mps 675 mmHg 47%
    18:00 +25°C° 0.1 mm 3 mps 675 mmHg 52%
    19:00 +23°C° 0.1 mm 2 mps 675 mmHg 58%
    20:00 +21°C° 0.1 mm 2 mps 675 mmHg 63%
    21:00 +21°C° 0.1 mm 2 mps 675 mmHg 66%
    22:00 +20°C° 0.1 mm 2 mps 675 mmHg 69%
    23:00 +20°C° 0.1 mm 1 mps 675 mmHg 72%

    Day after tomorrow, 23 June, Saturday

    Time Temperature Precipitation Wind Pressure Humidity
    00:00 +20°C° 0 mm 1 mps 675 mmHg 74%
    01:00 +19°C° 0 mm 1 mps 675 mmHg 76%
    02:00 +19°C° 0 mm 1 mps 675 mmHg 78%
    03:00 +19°C° 0 mm 1 mps 675 mmHg 79%
    04:00 +18°C° 0 mm 1 mps 675 mmHg 80%
    05:00 +18°C° 0 mm 1 mps 675 mmHg 82%
    06:00 +20°C° 0 mm 1 mps 675 mmHg 75%
    07:00 +20°C° 0 mm 2 mps 675 mmHg 67%
    08:00 +23°C° 0 mm 2 mps 676 mmHg 60%
    09:00 +24°C° 0 mm 2 mps 676 mmHg 54%
    10:00 +25°C° 0 mm 2 mps 676 mmHg 48%
    11:00 +26°C° 0 mm 2 mps 676 mmHg 41%
    12:00 +27°C° 0.1 mm 2 mps 676 mmHg 39%
    13:00 +27°C° 0.1 mm 2 mps 676 mmHg 37%
    14:00 +28°C° 0.1 mm 2 mps 676 mmHg 35%
    15:00 +28°C° 0.2 mm 2 mps 676 mmHg 36%
    16:00 +27°C° 0.2 mm 2 mps 676 mmHg 38%
    17:00 +27°C° 0.2 mm 2 mps 675 mmHg 40%
    18:00 +26°C° 0.2 mm 2 mps 676 mmHg 44%
    19:00 +25°C° 0.2 mm 2 mps 676 mmHg 48%
    20:00 +24°C° 0.2 mm 1 mps 676 mmHg 52%
    21:00 +23°C° 0.1 mm 2 mps 676 mmHg 56%
    22:00 +21°C° 0.1 mm 2 mps 676 mmHg 61%
    23:00 +20°C° 0.1 mm 2 mps 676 mmHg 65%

    24 June, Sunday

    Time Temperature Precipitation Wind Pressure Humidity
    00:00 +19°C° 0 mm 2 mps 676 mmHg 68%
    01:00 +19°C° 0 mm 2 mps 675 mmHg 71%
    02:00 +18°C° 0 mm 2 mps 675 mmHg 74%
    03:00 +18°C° 0 mm 2 mps 675 mmHg 76%
    04:00 +18°C° 0 mm 2 mps 675 mmHg 78%
    05:00 +17°C° 0 mm 2 mps 675 mmHg 81%
    06:00 +19°C° 0 mm 2 mps 675 mmHg 73%
    07:00 +20°C° 0 mm 2 mps 676 mmHg 66%
    08:00 +23°C° 0 mm 2 mps 676 mmHg 59%
    09:00 +24°C° 0 mm 2 mps 677 mmHg 53%
    10:00 +26°C° 0 mm 2 mps 677 mmHg 47%
    11:00 +27°C° 0 mm 2 mps 677 mmHg 41%
    12:00 +28°C° 0 mm 1 mps 677 mmHg 39%
    13:00 +29°C° 0 mm 1 mps 677 mmHg 36%
    14:00 +29°C° 0 mm 1 mps 677 mmHg 34%
    15:00 +29°C° 0 mm 1 mps 677 mmHg 35%
    16:00 +29°C° 0 mm 1 mps 676 mmHg 36%
    17:00 +28°C° 0 mm 1 mps 676 mmHg 37%
    18:00 +27°C° 0 mm 1 mps 676 mmHg 41%
    19:00 +26°C° 0 mm 1 mps 676 mmHg 45%
    20:00 +25°C° 0 mm 1 mps 676 mmHg 49%
    21:00 +24°C° 0 mm 1 mps 676 mmHg 52%
    22:00 +24°C° 0 mm 1 mps 676 mmHg 54%
    23:00 +23°C° 0 mm 1 mps 676 mmHg 56%

    25 June, Monday

    Time Temperature Precipitation Wind Pressure Humidity
    00:00 +22°C° 0 mm 1 mps 676 mmHg 58%
    01:00 +22°C° 0 mm 1 mps 676 mmHg 60%
    02:00 +21°C° 0 mm 1 mps 676 mmHg 61%
    03:00 +21°C° 0 mm 1 mps 676 mmHg 62%
    04:00 +21°C° 0 mm 1 mps 676 mmHg 64%
    05:00 +20°C° 0 mm 1 mps 675 mmHg 65%
    06:00 +22°C° 0 mm 1 mps 676 mmHg 59%
    07:00 +24°C° 0 mm 2 mps 676 mmHg 54%
    08:00 +26°C° 0 mm 2 mps 677 mmHg 48%
    09:00 +27°C° 0 mm 2 mps 677 mmHg 43%
    10:00 +28°C° 0 mm 2 mps 677 mmHg 39%
    11:00 +30°C° 0 mm 2 mps 677 mmHg 34%
    12:00 +30°C° 0 mm 2 mps 677 mmHg 33%
    13:00 +30°C° 0 mm 2 mps 677 mmHg 31%
    14:00 +31°C° 0 mm 2 mps 677 mmHg 30%
    15:00 +30°C° 0 mm 2 mps 676 mmHg 32%
    16:00 +30°C° 0 mm 2 mps 676 mmHg 34%
    17:00 +29°C° 0 mm 2 mps 676 mmHg 36%
    18:00 +28°C° 0 mm 2 mps 676 mmHg 41%
    19:00 +26°C° 0 mm 2 mps 676 mmHg 46%
    20:00 +25°C° 0 mm 1 mps 676 mmHg 51%
    21:00 +24°C° 0 mm 1 mps 676 mmHg 55%
    22:00 +23°C° 0 mm 1 mps 676 mmHg 59%
    23:00 +22°C° 0 mm 1 mps 675 mmHg 63%

    26 June, Tuesday

    Time Temperature Precipitation Wind Pressure Humidity
    00:00 +22°C° 0 mm 1 mps 675 mmHg 64%
    01:00 +21°C° 0 mm 1 mps 675 mmHg 66%
    02:00 +21°C° 0 mm 1 mps 675 mmHg 67%
    03:00 +18°C° 0 mm 0 mps 675 mmHg 68%
    04:00 +18°C° 0 mm 0 mps 675 mmHg 69%
    05:00 +18°C° 0 mm 0 mps 674 mmHg 70%
    06:00 +20°C° 0 mm 0 mps 675 mmHg 61%
    07:00 +24°C° 0 mm 1 mps 675 mmHg 53%
    08:00 +26°C° 0 mm 1 mps 676 mmHg 45%
    09:00 +27°C° 0 mm 1 mps 676 mmHg 40%
    10:00 +28°C° 0 mm 2 mps 676 mmHg 36%
    11:00 +30°C° 0 mm 2 mps 676 mmHg 31%
    12:00 +30°C° 0 mm 2 mps 676 mmHg 29%
    13:00 +31°C° 0 mm 3 mps 676 mmHg 28%
    14:00 +33°C° 0 mm 3 mps 676 mmHg 26%
    15:00 +31°C° 0 mm 3 mps 676 mmHg 28%
    16:00 +31°C° 0 mm 3 mps 676 mmHg 30%
    17:00 +30°C° 0 mm 3 mps 675 mmHg 33%
    18:00 +29°C° 0 mm 2 mps 675 mmHg 38%
    19:00 +27°C° 0 mm 2 mps 675 mmHg 43%
    20:00 +26°C° 0 mm 2 mps 675 mmHg 48%
    21:00 +25°C° 0 mm 1 mps 675 mmHg 52%
    22:00 +24°C° 0 mm 1 mps 675 mmHg 56%
    23:00 +23°C° 0 mm 1 mps 675 mmHg 60%
    Show more